Location: Newark
(51.5306°N, 0.2243°W)
Time: 06:49:50
(UTC+00:00)

Envisat - Pass Details

Date: 26 September 2019
Orbit: 764 x 766 km, 98.1° (Epoch: 19 October)

Event Time Altitude Azimuth Distance (km) Brightness Sun altitude
Rises 19:01:47 0° 198° (SSW) 3,222 6.3 -11.8°
Reaches altitude 10° 19:04:25 10° 210° (SSW) 2,301 5.7 -12.2°
Maximum altitude 19:08:41 27° 268° (W) 1,452 5.3 -12.8°
Drops below altitude 10° 19:12:59 10° 325° (NW) 2,315 6.2 -13.5°
Sets 19:15:39 0° 338° (NNW) 3,246 6.8 -13.9°
